GFSNGP_prec_precacc_135.txt.gz
Total_Precipitation_Accumulation
0.02 0.01 0.01 0.02 0.01 0.01 0.03 0.08 0.27 0.14 0.17 0.28 0.32 0.35 0.49 0.28 0.40 0.24 0.52 0.61 0.34 0.27 0.28 0.25 0.31 0.38 0.52 0.48 0.48 0.54 0.57 0.59 0.50 0.63 1.00 1.09 1.13 0.97 0.78 0.65 0.60 0.50 0.44 0.38
0.09 0.00 0.00 0.00 0.00 0.00 0.01 0.02 0.02 0.01 0.02 0.01 0.04 0.09 0.08 0.09 0.10 0.19 0.35 0.28 0.28 0.21 0.22 0.25 0.31 0.34 0.46 0.55 0.49 0.46 0.45 0.41 0.57 0.72 0.64 0.70 0.64 0.49 0.33 0.32 0.40 0.44 0.32 0.29
0.16 0.02 0.06 0.09 0.02 0.03 0.14 0.20 0.05 0.06 0.07 0.02 0.04 0.06 0.10 0.12 0.10 0.12 0.12 0.07 0.15 0.21 0.17 0.27 0.29 0.30 0.42 0.55 0.55 0.40 0.34 0.34 0.37 0.37 0.36 0.31 0.23 0.25 0.30 0.31 0.27 0.30 0.43 0.34
0.33 0.22 0.32 0.15 0.04 0.04 0.18 0.12 0.05 0.08 0.05 0.04 0.03 0.12 0.10 0.05 0.05 0.07 0.06 0.07 0.06 0.09 0.06 0.12 0.26 0.44 0.51 0.54 0.59 0.55 0.36 0.26 0.18 0.14 0.14 0.17 0.27 0.34 0.35 0.33 0.25 0.24 0.32 0.62
0.47 0.30 0.16 0.07 0.09 0.13 0.17 0.26 0.19 0.16 0.10 0.05 0.05 0.11 0.14 0.09 0.08 0.09 0.06 0.05 0.01 0.01 0.01 0.02 0.10 0.37 0.75 0.87 0.66 0.62 0.46 0.34 0.19 0.14 0.16 0.26 0.40 0.47 0.39 0.34 0.41 0.35 0.34 0.39
0.62 0.52 0.22 0.19 0.16 0.07 0.13 0.50 0.69 0.38 0.31 0.28 0.18 0.33 0.33 0.15 0.11 0.07 0.03 0.00 0.00 0.00 0.00 0.02 0.08 0.23 0.39 0.74 0.85 0.60 0.54 0.41 0.39 0.29 0.28 0.36 0.35 0.28 0.28 0.38 0.39 0.52 0.60 0.43
0.62 1.04 0.50 0.17 0.07 0.09 0.51 1.08 0.83 0.75 0.93 0.77 0.80 0.91 0.56 0.35 0.15 0.04 0.00 0.00 0.00 0.00 0.00 0.00 0.05 0.18 0.47 0.69 1.06 1.04 0.70 0.62 0.48 0.37 0.37 0.31 0.27 0.27 0.33 0.37 0.45 0.43 0.42 0.51
0.98 1.07 0.69 0.21 0.40 0.85 0.95 0.54 0.68 1.16 1.41 1.21 1.06 0.78 0.45 0.14 0.06 0.02 0.00 0.00 0.00 0.00 0.00 0.01 0.03 0.06 0.20 0.53 1.15 1.59 1.27 0.84 0.78 0.64 0.39 0.30 0.26 0.25 0.31 0.40 0.45 0.44 0.39 0.36
0.92 0.76 0.50 0.36 0.61 0.77 0.66 0.71 0.80 0.73 0.79 0.55 0.44 0.20 0.07 0.04 0.01 0.00 0.00 0.00 0.00 0.01 0.02 0.02 0.01 0.02 0.07 0.16 0.35 1.17 1.83 1.81 1.35 0.88 0.75 0.69 0.66 0.59 0.51 0.47 0.45 0.48 0.50 0.51
0.97 0.63 0.36 0.53 0.40 0.48 0.72 0.69 0.43 0.42 0.41 0.38 0.26 0.16 0.11 0.04 0.02 0.01 0.01 0.01 0.02 0.03 0.02 0.01 0.01 0.02 0.04 0.07 0.15 0.42 0.91 1.49 1.86 1.87 1.12 0.98 1.13 1.12 1.25 1.20 0.95 0.93 1.01 1.04
1.29 1.43 0.90 0.57 0.56 0.54 0.52 0.56 0.58 0.34 0.24 0.27 0.36 0.31 0.26 0.23 0.09 0.03 0.05 0.06 0.05 0.07 0.06 0.03 0.04 0.04 0.06 0.12 0.18 0.25 0.56 0.97 1.27 1.94 1.91 1.09 0.98 1.19 1.14 1.41 1.49 1.20 1.08 1.16
1.14 1.24 1.53 1.12 1.26 0.97 0.70 0.40 0.29 0.17 0.23 0.17 0.09 0.10 0.15 0.20 0.30 0.31 0.22 0.19 0.18 0.14 0.09 0.10 0.10 0.13 0.14 0.16 0.22 0.28 0.49 0.89 1.18 1.44 2.02 2.02 1.43 1.64 1.98 2.11 2.05 2.14 2.18 1.93
0.45 0.57 0.85 1.06 0.74 0.36 0.34 0.39 0.20 0.08 0.07 0.02 0.02 0.05 0.15 0.31 0.42 0.43 0.40 0.34 0.31 0.33 0.31 0.19 0.15 0.17 0.19 0.20 0.22 0.31 0.43 0.55 0.90 1.31 1.70 1.89 2.01 1.78 1.85 2.04 1.98 1.94 1.93 1.76
0.09 0.13 0.25 0.24 0.25 0.18 0.15 0.21 0.13 0.05 0.06 0.06 0.06 0.05 0.11 0.31 0.84 1.23 1.14 0.80 0.57 0.44 0.45 0.52 0.55 0.67 0.73 0.68 0.64 0.70 0.85 1.11 1.15 1.32 1.70 2.02 2.16 2.09 1.97 1.75 1.61 1.85 1.90 1.88
0.02 0.05 0.14 0.08 0.05 0.08 0.06 0.06 0.04 0.06 0.12 0.15 0.09 0.11 0.24 0.42 0.59 0.86 1.35 1.48 1.40 1.32 1.37 1.28 1.24 1.65 1.72 1.58 1.54 1.56 1.40 1.40 1.47 1.62 1.59 1.67 1.80 1.82 1.72 1.68 1.65 1.70 1.64 1.45
0.01 0.01 0.02 0.04 0.04 0.05 0.04 0.05 0.08 0.08 0.03 0.02 0.09 0.21 0.18 0.31 0.39 0.48 0.75 1.00 1.14 1.50 1.79 1.83 1.86 1.90 1.61 1.46 1.23 1.21 1.19 1.05 0.90 0.91 1.11 1.26 1.26 1.31 1.42 1.48 1.51 1.51 1.49 1.54
0.01 0.03 0.04 0.05 0.08 0.08 0.07 0.05 0.03 0.03 0.03 0.05 0.07 0.09 0.09 0.16 0.30 0.61 0.95 1.05 1.17 1.32 1.34 1.23 1.24 1.03 0.80 0.78 0.70 0.67 0.67 0.68 0.63 0.61 0.63 0.70 0.86 0.97 1.05 1.09 1.15 1.14 1.23 1.28
0.01 0.02 0.07 0.12 0.07 0.01 0.01 0.01 0.03 0.05 0.08 0.12 0.24 0.38 0.43 0.50 0.73 1.08 1.41 1.37 0.93 0.83 0.90 0.86 0.67 0.50 0.43 0.47 0.43 0.39 0.38 0.41 0.46 0.53 0.54 0.56 0.61 0.64 0.63 0.67 0.75 0.79 0.87 0.88
0.10 0.09 0.05 0.02 0.03 0.03 0.03 0.05 0.09 0.15 0.23 0.30 0.41 0.68 0.86 0.93 0.90 0.87 0.86 0.80 0.82 0.68 0.75 0.48 0.36 0.26 0.23 0.27 0.24 0.28 0.31 0.35 0.36 0.38 0.43 0.46 0.46 0.54 0.58 0.56 0.56 0.61 0.62 0.64
0.04 0.04 0.04 0.05 0.06 0.08 0.12 0.20 0.26 0.36 0.47 0.44 0.49 0.60 0.60 0.67 0.58 0.60 0.58 0.49 0.47 0.43 0.30 0.26 0.22 0.21 0.19 0.17 0.11 0.15 0.19 0.25 0.25 0.31 0.40 0.43 0.50 0.51 0.45 0.42 0.45 0.49 0.50 0.54
0.26 0.10 0.11 0.14 0.18 0.28 0.38 0.44 0.39 0.50 0.67 0.55 0.45 0.59 0.65 0.83 0.77 0.67 0.53 0.39 0.37 0.25 0.22 0.19 0.14 0.14 0.11 0.13 0.12 0.17 0.24 0.28 0.33 0.37 0.35 0.36 0.35 0.33 0.35 0.34 0.37 0.38 0.40 0.41
0.59 0.61 0.50 0.46 0.47 0.58 0.63 0.61 0.46 0.50 0.55 0.62 0.65 0.64 0.62 0.72 0.66 0.59 0.43 0.34 0.31 0.24 0.21 0.19 0.16 0.15 0.14 0.16 0.19 0.22 0.25 0.27 0.24 0.21 0.23 0.24 0.26 0.27 0.27 0.27 0.28 0.27 0.27 0.28
0.79 0.85 0.88 0.78 0.68 0.79 0.86 0.75 0.74 0.62 0.66 0.67 0.64 0.62 0.52 0.57 0.45 0.33 0.32 0.26 0.19 0.20 0.20 0.20 0.17 0.16 0.15 0.20 0.25 0.25 0.25 0.21 0.19 0.19 0.20 0.21 0.22 0.22 0.21 0.21 0.21 0.23 0.21 0.19
0.78 0.70 0.76 0.78 0.65 0.50 0.59 0.76 0.65 0.62 0.55 0.61 0.58 0.53 0.43 0.40 0.39 0.28 0.24 0.21 0.21 0.21 0.21 0.22 0.15 0.13 0.16 0.24 0.22 0.21 0.21 0.18 0.16 0.18 0.18 0.18 0.20 0.19 0.18 0.17 0.16 0.13 0.15 0.14
0.63 0.58 0.55 0.53 0.50 0.56 0.49 0.48 0.45 0.52 0.49 0.59 0.54 0.43 0.32 0.27 0.31 0.31 0.25 0.26 0.22 0.20 0.21 0.18 0.13 0.14 0.19 0.21 0.20 0.19 0.19 0.17 0.16 0.19 0.21 0.20 0.18 0.17 0.16 0.15 0.15 0.14 0.14 0.12
0.63 0.62 0.57 0.50 0.50 0.47 0.44 0.43 0.46 0.55 0.47 0.48 0.44 0.37 0.34 0.29 0.27 0.25 0.22 0.19 0.13 0.15 0.18 0.21 0.18 0.18 0.18 0.18 0.17 0.17 0.17 0.16 0.15 0.17 0.17 0.16 0.17 0.16 0.15 0.15 0.16 0.15 0.14 0.13
0.54 0.50 0.39 0.40 0.44 0.44 0.43 0.44 0.40 0.44 0.42 0.42 0.43 0.35 0.33 0.31 0.29 0.28 0.27 0.24 0.21 0.22 0.22 0.21 0.19 0.17 0.17 0.17 0.18 0.16 0.16 0.16 0.15 0.15 0.15 0.16 0.17 0.19 0.19 0.18 0.19 0.19 0.19 0.19

GFSNGP_prec_precacc_141.txt.gz
Total_Precipitation_Accumulation
0.02 0.01 0.01 0.02 0.01 0.01 0.03 0.09 0.30 0.15 0.20 0.30 0.33 0.44 0.61 0.38 0.45 0.31 0.67 0.81 0.61 0.64 0.59 0.57 0.61 0.56 0.62 0.55 0.50 0.54 0.57 0.59 0.50 0.63 1.00 1.09 1.13 0.97 0.78 0.65 0.60 0.50 0.44 0.38
0.09 0.00 0.00 0.00 0.00 0.01 0.02 0.03 0.03 0.04 0.07 0.03 0.04 0.10 0.08 0.10 0.11 0.20 0.37 0.28 0.29 0.22 0.23 0.27 0.33 0.38 0.47 0.56 0.49 0.46 0.45 0.41 0.57 0.72 0.64 0.70 0.64 0.49 0.33 0.32 0.40 0.44 0.32 0.29
0.16 0.02 0.06 0.10 0.02 0.03 0.15 0.24 0.18 0.14 0.10 0.02 0.04 0.08 0.14 0.13 0.10 0.12 0.12 0.07 0.15 0.21 0.17 0.27 0.29 0.31 0.43 0.55 0.55 0.40 0.34 0.34 0.37 0.37 0.36 0.31 0.23 0.25 0.30 0.31 0.27 0.30 0.43 0.34
0.33 0.22 0.32 0.15 0.04 0.04 0.20 0.13 0.06 0.10 0.06 0.04 0.04 0.17 0.14 0.06 0.05 0.07 0.06 0.07 0.06 0.09 0.06 0.12 0.26 0.44 0.51 0.54 0.59 0.55 0.36 0.26 0.18 0.14 0.14 0.17 0.27 0.34 0.35 0.33 0.25 0.24 0.32 0.62
0.48 0.31 0.17 0.07 0.09 0.13 0.18 0.31 0.20 0.17 0.11 0.05 0.05 0.18 0.25 0.10 0.08 0.09 0.06 0.05 0.01 0.01 0.01 0.02 0.10 0.37 0.75 0.87 0.66 0.62 0.46 0.34 0.19 0.14 0.16 0.26 0.40 0.47 0.39 0.34 0.41 0.35 0.34 0.39
0.63 0.53 0.23 0.19 0.16 0.07 0.16 0.54 0.71 0.39 0.34 0.30 0.18 0.36 0.38 0.16 0.11 0.07 0.03 0.00 0.00 0.00 0.00 0.02 0.08 0.23 0.39 0.74 0.85 0.60 0.54 0.41 0.39 0.29 0.28 0.36 0.35 0.28 0.28 0.38 0.39 0.52 0.60 0.43
0.62 1.04 0.50 0.17 0.07 0.09 0.51 1.10 0.86 0.78 0.98 0.84 0.88 1.02 0.62 0.37 0.15 0.04 0.00 0.00 0.00 0.00 0.00 0.00 0.05 0.18 0.47 0.69 1.06 1.04 0.70 0.62 0.48 0.37 0.37 0.31 0.27 0.27 0.33 0.37 0.45 0.43 0.42 0.51
0.98 1.07 0.69 0.21 0.40 0.86 0.96 0.56 0.73 1.24 1.46 1.25 1.08 0.79 0.45 0.14 0.06 0.02 0.00 0.00 0.00 0.00 0.00 0.01 0.03 0.06 0.20 0.53 1.15 1.59 1.27 0.84 0.78 0.64 0.39 0.30 0.26 0.25 0.31 0.40 0.45 0.44 0.39 0.36
0.92 0.76 0.50 0.36 0.61 0.77 0.67 0.73 0.85 0.76 0.79 0.55 0.44 0.20 0.07 0.04 0.01 0.00 0.00 0.00 0.00 0.01 0.02 0.02 0.01 0.02 0.08 0.16 0.35 1.17 1.83 1.81 1.36 0.88 0.75 0.69 0.66 0.59 0.51 0.47 0.46 0.49 0.50 0.51
0.97 0.63 0.36 0.53 0.40 0.48 0.72 0.69 0.44 0.42 0.41 0.38 0.26 0.16 0.11 0.04 0.03 0.01 0.01 0.01 0.02 0.03 0.02 0.01 0.01 0.02 0.05 0.07 0.15 0.42 0.91 1.49 1.86 1.88 1.13 0.98 1.13 1.12 1.26 1.21 0.96 0.94 1.01 1.04
1.29 1.43 0.90 0.58 0.56 0.54 0.52 0.56 0.58 0.34 0.24 0.27 0.36 0.31 0.27 0.23 0.09 0.03 0.05 0.06 0.05 0.07 0.06 0.03 0.04 0.04 0.06 0.12 0.18 0.26 0.56 0.97 1.27 1.94 1.91 1.09 0.98 1.19 1.14 1.42 1.51 1.23 1.09 1.18
1.14 1.24 1.53 1.12 1.26 0.97 0.70 0.40 0.29 0.17 0.23 0.17 0.09 0.10 0.15 0.20 0.30 0.31 0.23 0.19 0.18 0.14 0.09 0.10 0.11 0.13 0.14 0.16 0.23 0.29 0.49 0.89 1.18 1.45 2.02 2.02 1.44 1.65 1.98 2.11 2.06 2.15 2.18 1.94
0.45 0.57 0.85 1.06 0.74 0.36 0.34 0.39 0.20 0.08 0.07 0.02 0.02 0.05 0.15 0.32 0.42 0.43 0.40 0.34 0.31 0.34 0.31 0.19 0.15 0.17 0.20 0.20 0.23 0.31 0.44 0.56 0.90 1.32 1.70 1.89 2.01 1.79 1.86 2.05 1.98 1.95 1.93 1.77
0.09 0.13 0.25 0.24 0.25 0.18 0.15 0.21 0.13 0.05 0.06 0.06 0.06 0.05 0.11 0.31 0.84 1.23 1.14 0.81 0.57 0.44 0.45 0.52 0.55 0.67 0.74 0.69 0.64 0.70 0.85 1.11 1.16 1.33 1.72 2.03 2.17 2.11 1.98 1.76 1.61 1.85 1.91 1.90
0.02 0.05 0.14 0.08 0.05 0.08 0.06 0.06 0.04 0.06 0.12 0.15 0.09 0.11 0.24 0.42 0.60 0.86 1.35 1.48 1.41 1.32 1.37 1.28 1.24 1.65 1.72 1.58 1.55 1.56 1.40 1.41 1.47 1.62 1.62 1.71 1.82 1.84 1.73 1.69 1.66 1.70 1.64 1.45
0.01 0.01 0.02 0.04 0.04 0.05 0.04 0.05 0.08 0.08 0.03 0.02 0.09 0.21 0.18 0.31 0.39 0.48 0.75 1.00 1.15 1.50 1.79 1.83 1.86 1.90 1.62 1.46 1.23 1.21 1.19 1.06 0.91 0.93 1.13 1.29 1.29 1.34 1.45 1.51 1.53 1.52 1.50 1.56
0.01 0.03 0.04 0.05 0.08 0.08 0.07 0.05 0.03 0.03 0.03 0.05 0.08 0.10 0.09 0.16 0.30 0.61 0.95 1.05 1.17 1.32 1.34 1.23 1.25 1.04 0.81 0.78 0.71 0.67 0.68 0.68 0.63 0.63 0.66 0.75 0.91 1.02 1.09 1.12 1.17 1.17 1.26 1.34
0.01 0.02 0.07 0.12 0.07 0.01 0.01 0.01 0.03 0.05 0.08 0.12 0.24 0.38 0.43 0.50 0.74 1.09 1.41 1.37 0.93 0.83 0.90 0.86 0.68 0.52 0.45 0.48 0.44 0.39 0.38 0.41 0.47 0.54 0.56 0.60 0.66 0.71 0.68 0.71 0.79 0.84 0.94 0.95
0.10 0.09 0.05 0.02 0.03 0.03 0.03 0.05 0.09 0.15 0.23 0.30 0.41 0.68 0.86 0.94 0.91 0.87 0.86 0.80 0.82 0.69 0.75 0.48 0.37 0.28 0.25 0.28 0.24 0.29 0.31 0.35 0.36 0.38 0.44 0.47 0.49 0.58 0.62 0.60 0.61 0.67 0.70 0.73
0.04 0.04 0.04 0.05 0.06 0.08 0.12 0.20 0.26 0.36 0.47 0.44 0.49 0.60 0.60 0.67 0.59 0.60 0.58 0.49 0.47 0.45 0.32 0.27 0.24 0.23 0.21 0.18 0.12 0.15 0.20 0.25 0.26 0.32 0.41 0.45 0.52 0.54 0.49 0.47 0.50 0.56 0.59 0.64
0.26 0.10 0.11 0.14 0.18 0.28 0.38 0.44 0.39 0.50 0.67 0.55 0.46 0.59 0.66 0.83 0.77 0.67 0.53 0.39 0.37 0.26 0.22 0.19 0.15 0.15 0.13 0.14 0.13 0.18 0.25 0.29 0.34 0.39 0.36 0.38 0.37 0.35 0.39 0.40 0.43 0.45 0.49 0.51
0.59 0.61 0.50 0.46 0.47 0.58 0.63 0.61 0.46 0.51 0.55 0.62 0.66 0.65 0.62 0.73 0.66 0.59 0.43 0.36 0.31 0.24 0.21 0.20 0.16 0.17 0.16 0.17 0.20 0.24 0.26 0.28 0.26 0.23 0.25 0.26 0.27 0.29 0.30 0.31 0.34 0.34 0.35 0.37
0.79 0.85 0.88 0.78 0.68 0.79 0.86 0.75 0.74 0.62 0.66 0.67 0.64 0.62 0.52 0.58 0.46 0.34 0.33 0.27 0.20 0.20 0.20 0.20 0.18 0.17 0.16 0.21 0.27 0.27 0.27 0.23 0.21 0.21 0.22 0.23 0.24 0.25 0.24 0.24 0.25 0.29 0.28 0.27
0.78 0.70 0.76 0.78 0.65 0.50 0.59 0.76 0.65 0.62 0.55 0.62 0.58 0.54 0.43 0.41 0.39 0.29 0.24 0.22 0.21 0.21 0.22 0.22 0.16 0.14 0.17 0.25 0.23 0.22 0.23 0.20 0.18 0.19 0.18 0.19 0.20 0.19 0.19 0.18 0.18 0.16 0.19 0.19
0.63 0.58 0.55 0.53 0.50 0.56 0.49 0.48 0.45 0.52 0.49 0.59 0.54 0.43 0.33 0.28 0.33 0.32 0.26 0.26 0.22 0.20 0.21 0.18 0.13 0.14 0.20 0.22 0.21 0.20 0.20 0.17 0.16 0.19 0.21 0.20 0.18 0.17 0.16 0.15 0.15 0.14 0.14 0.14
0.63 0.62 0.57 0.50 0.50 0.47 0.44 0.43 0.46 0.55 0.47 0.48 0.44 0.37 0.34 0.29 0.27 0.25 0.22 0.19 0.13 0.15 0.18 0.21 0.18 0.18 0.19 0.19 0.18 0.18 0.17 0.16 0.15 0.17 0.17 0.16 0.17 0.16 0.15 0.15 0.16 0.15 0.14 0.13
0.54 0.50 0.39 0.40 0.44 0.44 0.43 0.44 0.40 0.44 0.42 0.42 0.43 0.35 0.33 0.31 0.29 0.29 0.27 0.24 0.22 0.22 0.22 0.21 0.19 0.17 0.18 0.18 0.19 0.18 0.16 0.16 0.15 0.16 0.15 0.16 0.17 0.19 0.19 0.18 0.19 0.19 0.19 0.19

GFSNGP_prec_precacc_144.txt.gz
Total_Precipitation_Accumulation
0.02 0.01 0.01 0.02 0.01 0.01 0.03 0.09 0.30 0.15 0.20 0.31 0.33 0.44 0.62 0.38 0.45 0.31 0.67 0.81 0.61 0.64 0.59 0.58 0.65 0.68 0.75 0.64 0.58 0.58 0.58 0.59 0.50 0.63 1.00 1.09 1.13 0.97 0.78 0.65 0.60 0.50 0.44 0.38
0.09 0.00 0.00 0.00 0.00 0.01 0.02 0.03 0.04 0.05 0.08 0.03 0.04 0.10 0.09 0.10 0.11 0.21 0.37 0.28 0.29 0.22 0.23 0.27 0.33 0.39 0.52 0.60 0.51 0.47 0.45 0.41 0.57 0.72 0.64 0.70 0.64 0.49 0.33 0.32 0.40 0.44 0.32 0.29
0.16 0.02 0.06 0.10 0.02 0.03 0.15 0.24 0.18 0.15 0.11 0.02 0.04 0.08 0.15 0.13 0.10 0.12 0.12 0.07 0.15 0.21 0.17 0.27 0.29 0.31 0.44 0.57 0.56 0.41 0.34 0.34 0.37 0.37 0.36 0.31 0.23 0.25 0.30 0.31 0.27 0.30 0.43 0.34
0.33 0.22 0.32 0.15 0.04 0.04 0.20 0.14 0.07 0.10 0.06 0.04 0.04 0.17 0.14 0.07 0.05 0.08 0.06 0.07 0.06 0.09 0.06 0.12 0.26 0.44 0.51 0.54 0.60 0.56 0.37 0.26 0.18 0.14 0.14 0.17 0.27 0.34 0.35 0.33 0.25 0.24 0.32 0.62
0.48 0.31 0.17 0.07 0.09 0.13 0.18 0.32 0.21 0.17 0.11 0.05 0.05 0.19 0.28 0.11 0.08 0.09 0.06 0.05 0.01 0.01 0.01 0.02 0.10 0.37 0.75 0.87 0.66 0.62 0.46 0.34 0.20 0.14 0.16 0.26 0.40 0.47 0.39 0.34 0.41 0.35 0.34 0.39
0.63 0.53 0.23 0.20 0.16 0.07 0.16 0.55 0.71 0.40 0.34 0.30 0.19 0.37 0.39 0.16 0.11 0.07 0.03 0.00 0.00 0.00 0.00 0.02 0.08 0.23 0.39 0.74 0.85 0.60 0.54 0.41 0.39 0.29 0.28 0.36 0.35 0.28 0.28 0.38 0.39 0.52 0.60 0.43
0.62 1.05 0.50 0.17 0.07 0.09 0.52 1.11 0.87 0.80 1.00 0.85 0.89 1.03 0.63 0.37 0.15 0.04 0.00 0.00 0.00 0.00 0.00 0.00 0.05 0.18 0.47 0.69 1.06 1.04 0.70 0.62 0.48 0.37 0.37 0.31 0.27 0.27 0.33 0.37 0.45 0.43 0.42 0.51
0.98 1.07 0.69 0.21 0.40 0.86 0.96 0.56 0.74 1.25 1.47 1.25 1.08 0.79 0.45 0.14 0.06 0.02 0.00 0.00 0.00 0.00 0.00 0.01 0.03 0.06 0.20 0.53 1.15 1.59 1.27 0.84 0.78 0.64 0.39 0.30 0.26 0.25 0.31 0.40 0.45 0.44 0.39 0.36
0.92 0.76 0.50 0.36 0.61 0.77 0.67 0.73 0.85 0.76 0.79 0.55 0.44 0.20 0.07 0.04 0.01 0.00 0.00 0.00 0.00 0.01 0.02 0.02 0.01 0.02 0.08 0.16 0.35 1.17 1.83 1.81 1.36 0.88 0.75 0.69 0.66 0.60 0.51 0.47 0.46 0.49 0.50 0.51
0.97 0.63 0.36 0.53 0.40 0.48 0.72 0.70 0.44 0.42 0.41 0.38 0.26 0.16 0.11 0.04 0.03 0.01 0.01 0.01 0.02 0.03 0.02 0.01 0.01 0.02 0.05 0.07 0.16 0.42 0.91 1.50 1.86 1.88 1.13 0.98 1.13 1.13 1.26 1.22 0.96 0.94 1.02 1.04
1.29 1.43 0.90 0.58 0.56 0.54 0.52 0.57 0.58 0.34 0.24 0.27 0.36 0.31 0.27 0.23 0.09 0.03 0.05 0.06 0.05 0.07 0.06 0.03 0.04 0.04 0.06 0.13 0.18 0.26 0.56 0.98 1.27 1.94 1.91 1.09 0.98 1.20 1.15 1.43 1.52 1.25 1.10 1.19
1.14 1.24 1.53 1.12 1.26 0.97 0.70 0.40 0.29 0.17 0.23 0.17 0.09 0.10 0.15 0.20 0.30 0.31 0.23 0.19 0.18 0.14 0.09 0.10 0.11 0.13 0.14 0.16 0.23 0.29 0.49 0.89 1.19 1.45 2.03 2.02 1.44 1.65 1.98 2.11 2.06 2.15 2.19 1.95
0.45 0.57 0.85 1.06 0.74 0.36 0.34 0.39 0.20 0.08 0.07 0.02 0.02 0.05 0.15 0.32 0.42 0.44 0.41 0.34 0.31 0.34 0.32 0.19 0.15 0.17 0.20 0.20 0.23 0.31 0.44 0.56 0.90 1.32 1.71 1.90 2.02 1.79 1.86 2.05 1.98 1.95 1.93 1.77
0.09 0.13 0.25 0.24 0.25 0.18 0.15 0.21 0.13 0.05 0.06 0.06 0.06 0.05 0.11 0.31 0.84 1.23 1.15 0.81 0.58 0.45 0.45 0.52 0.55 0.67 0.75 0.69 0.65 0.70 0.85 1.12 1.16 1.33 1.72 2.04 2.18 2.12 1.99 1.77 1.62 1.85 1.91 1.90
0.02 0.05 0.14 0.08 0.05 0.08 0.06 0.06 0.04 0.06 0.12 0.15 0.09 0.11 0.24 0.42 0.60 0.86 1.36 1.48 1.41 1.32 1.37 1.28 1.24 1.66 1.73 1.59 1.55 1.57 1.41 1.41 1.48 1.63 1.62 1.72 1.83 1.85 1.73 1.69 1.66 1.71 1.64 1.45
0.01 0.01 0.02 0.04 0.04 0.05 0.04 0.05 0.08 0.08 0.03 0.02 0.09 0.21 0.18 0.31 0.39 0.48 0.75 1.00 1.15 1.50 1.79 1.83 1.87 1.91 1.63 1.47 1.24 1.22 1.20 1.06 0.91 0.93 1.13 1.29 1.29 1.34 1.46 1.51 1.53 1.52 1.50 1.56
0.01 0.03 0.04 0.05 0.08 0.08 0.07 0.05 0.03 0.03 0.03 0.05 0.08 0.10 0.09 0.16 0.30 0.61 0.95 1.05 1.17 1.32 1.35 1.24 1.25 1.05 0.82 0.79 0.71 0.68 0.68 0.69 0.63 0.63 0.66 0.75 0.92 1.03 1.09 1.12 1.18 1.18 1.27 1.34
0.01 0.02 0.07 0.12 0.07 0.01 0.01 0.01 0.03 0.05 0.08 0.12 0.24 0.38 0.43 0.50 0.74 1.09 1.41 1.37 0.93 0.83 0.90 0.87 0.69 0.53 0.45 0.48 0.44 0.40 0.39 0.41 0.47 0.54 0.57 0.61 0.67 0.71 0.69 0.71 0.79 0.84 0.94 0.95
0.10 0.09 0.05 0.02 0.03 0.03 0.03 0.05 0.09 0.15 0.23 0.30 0.41 0.68 0.87 0.94 0.91 0.87 0.86 0.80 0.82 0.69 0.76 0.49 0.37 0.28 0.26 0.28 0.25 0.29 0.32 0.36 0.37 0.38 0.44 0.48 0.49 0.59 0.62 0.61 0.61 0.67 0.71 0.74
0.04 0.04 0.04 0.05 0.06 0.08 0.12 0.20 0.26 0.36 0.47 0.44 0.49 0.60 0.60 0.67 0.59 0.60 0.58 0.49 0.48 0.46 0.32 0.27 0.24 0.23 0.21 0.18 0.12 0.16 0.21 0.26 0.26 0.32 0.41 0.45 0.53 0.55 0.50 0.47 0.50 0.57 0.60 0.65
0.26 0.10 0.11 0.14 0.18 0.28 0.38 0.44 0.39 0.50 0.67 0.55 0.46 0.59 0.66 0.83 0.77 0.67 0.53 0.39 0.38 0.26 0.23 0.20 0.16 0.16 0.13 0.15 0.13 0.18 0.25 0.29 0.35 0.39 0.37 0.38 0.37 0.36 0.39 0.40 0.43 0.46 0.49 0.52
0.59 0.61 0.50 0.46 0.47 0.58 0.63 0.61 0.46 0.51 0.55 0.62 0.66 0.65 0.62 0.73 0.66 0.59 0.44 0.36 0.32 0.24 0.21 0.20 0.17 0.17 0.16 0.18 0.21 0.25 0.27 0.29 0.27 0.24 0.26 0.27 0.28 0.30 0.31 0.32 0.35 0.35 0.36 0.39
0.79 0.85 0.88 0.78 0.68 0.79 0.86 0.75 0.74 0.62 0.67 0.67 0.65 0.62 0.53 0.58 0.46 0.34 0.33 0.27 0.20 0.20 0.20 0.21 0.18 0.17 0.17 0.22 0.27 0.27 0.27 0.23 0.21 0.22 0.23 0.23 0.25 0.26 0.25 0.25 0.27 0.30 0.30 0.29
0.78 0.70 0.76 0.78 0.65 0.50 0.59 0.76 0.65 0.62 0.55 0.62 0.58 0.54 0.43 0.41 0.39 0.29 0.25 0.22 0.21 0.21 0.22 0.22 0.16 0.14 0.18 0.25 0.24 0.23 0.23 0.20 0.18 0.19 0.19 0.19 0.20 0.20 0.20 0.19 0.19 0.17 0.21 0.21
0.63 0.58 0.55 0.53 0.50 0.56 0.49 0.48 0.45 0.52 0.49 0.59 0.54 0.44 0.33 0.28 0.33 0.32 0.26 0.26 0.23 0.20 0.21 0.18 0.13 0.15 0.20 0.23 0.22 0.21 0.20 0.18 0.17 0.20 0.21 0.20 0.18 0.17 0.16 0.16 0.15 0.15 0.15 0.16
0.63 0.62 0.57 0.50 0.50 0.47 0.44 0.43 0.46 0.56 0.48 0.49 0.44 0.37 0.35 0.30 0.27 0.26 0.22 0.19 0.14 0.15 0.19 0.22 0.18 0.18 0.19 0.20 0.19 0.19 0.18 0.16 0.16 0.17 0.18 0.17 0.17 0.16 0.15 0.15 0.16 0.15 0.14 0.14
0.55 0.50 0.39 0.40 0.44 0.44 0.43 0.44 0.40 0.44 0.43 0.42 0.44 0.35 0.33 0.32 0.29 0.29 0.27 0.25 0.22 0.23 0.23 0.21 0.19 0.18 0.18 0.18 0.20 0.18 0.17 0.16 0.15 0.16 0.16 0.16 0.18 0.19 0.20 0.19 0.19 0.19 0.19 0.19

GFSNGP_prec_precacc_147.txt.gz
Total_Precipitation_Accumulation
0.02 0.01 0.01 0.02 0.01 0.01 0.03 0.09 0.30 0.15 0.21 0.32 0.33 0.44 0.62 0.39 0.45 0.31 0.67 0.81 0.61 0.64 0.59 0.58 0.65 0.68 0.76 0.66 0.65 0.69 0.65 0.64 0.52 0.65 1.04 1.15 1.27 1.05 0.81 0.66 0.60 0.50 0.44 0.38
0.09 0.00 0.00 0.00 0.00 0.01 0.02 0.03 0.04 0.05 0.08 0.04 0.04 0.10 0.09 0.10 0.11 0.21 0.37 0.28 0.29 0.22 0.23 0.27 0.33 0.39 0.52 0.61 0.53 0.49 0.47 0.41 0.57 0.72 0.64 0.70 0.64 0.49 0.34 0.33 0.40 0.44 0.32 0.29
0.16 0.02 0.06 0.10 0.02 0.03 0.15 0.24 0.18 0.15 0.11 0.02 0.04 0.08 0.15 0.13 0.10 0.12 0.12 0.07 0.15 0.21 0.17 0.27 0.29 0.31 0.44 0.57 0.56 0.41 0.34 0.34 0.37 0.37 0.36 0.31 0.23 0.25 0.30 0.31 0.27 0.30 0.43 0.34
0.33 0.22 0.33 0.15 0.04 0.04 0.20 0.14 0.07 0.10 0.06 0.04 0.04 0.17 0.14 0.07 0.05 0.08 0.06 0.07 0.06 0.09 0.06 0.12 0.26 0.44 0.51 0.54 0.60 0.56 0.37 0.26 0.18 0.14 0.14 0.17 0.27 0.34 0.35 0.33 0.25 0.24 0.32 0.62
0.48 0.31 0.18 0.07 0.09 0.13 0.18 0.32 0.21 0.17 0.11 0.06 0.05 0.19 0.31 0.11 0.08 0.09 0.06 0.05 0.01 0.01 0.01 0.02 0.10 0.37 0.75 0.87 0.66 0.62 0.46 0.34 0.20 0.14 0.16 0.26 0.40 0.47 0.39 0.34 0.41 0.35 0.34 0.39
0.63 0.53 0.24 0.20 0.16 0.07 0.16 0.56 0.71 0.40 0.34 0.30 0.19 0.37 0.41 0.16 0.11 0.07 0.03 0.00 0.00 0.00 0.00 0.02 0.08 0.23 0.39 0.74 0.85 0.60 0.54 0.41 0.39 0.29 0.28 0.36 0.35 0.28 0.28 0.38 0.39 0.52 0.60 0.43
0.63 1.05 0.50 0.17 0.07 0.09 0.53 1.13 0.87 0.80 1.00 0.85 0.90 1.03 0.63 0.37 0.15 0.04 0.00 0.00 0.00 0.00 0.00 0.00 0.05 0.18 0.47 0.69 1.06 1.04 0.70 0.62 0.48 0.37 0.37 0.31 0.27 0.27 0.33 0.37 0.45 0.43 0.42 0.51
0.99 1.09 0.70 0.21 0.40 0.86 0.97 0.56 0.74 1.25 1.47 1.25 1.08 0.79 0.45 0.14 0.06 0.02 0.00 0.00 0.00 0.00 0.00 0.01 0.03 0.06 0.20 0.53 1.15 1.59 1.27 0.84 0.78 0.64 0.39 0.30 0.26 0.25 0.31 0.40 0.45 0.44 0.39 0.36
0.93 0.77 0.50 0.36 0.61 0.77 0.67 0.73 0.85 0.76 0.79 0.55 0.44 0.20 0.07 0.04 0.01 0.00 0.00 0.00 0.00 0.01 0.02 0.02 0.01 0.02 0.08 0.16 0.35 1.17 1.83 1.81 1.36 0.88 0.75 0.69 0.66 0.60 0.51 0.47 0.46 0.49 0.51 0.52
0.97 0.63 0.36 0.53 0.40 0.48 0.72 0.70 0.44 0.42 0.41 0.38 0.26 0.16 0.11 0.04 0.03 0.01 0.01 0.01 0.02 0.03 0.02 0.01 0.01 0.02 0.05 0.07 0.16 0.42 0.92 1.50 1.87 1.88 1.13 0.98 1.13 1.13 1.26 1.22 0.97 0.94 1.02 1.05
1.29 1.43 0.90 0.58 0.56 0.54 0.52 0.57 0.58 0.34 0.24 0.27 0.36 0.31 0.27 0.23 0.09 0.03 0.05 0.06 0.05 0.07 0.06 0.03 0.04 0.04 0.06 0.13 0.18 0.26 0.56 0.98 1.28 1.95 1.92 1.09 0.99 1.20 1.15 1.43 1.53 1.25 1.11 1.20
1.14 1.24 1.53 1.13 1.26 0.97 0.70 0.40 0.29 0.17 0.23 0.17 0.09 0.10 0.15 0.20 0.30 0.31 0.23 0.19 0.18 0.14 0.09 0.10 0.11 0.13 0.14 0.16 0.23 0.29 0.50 0.90 1.19 1.45 2.03 2.03 1.44 1.65 1.99 2.11 2.06 2.15 2.19 1.96
0.45 0.57 0.85 1.06 0.74 0.36 0.34 0.39 0.20 0.08 0.07 0.02 0.02 0.05 0.15 0.32 0.42 0.44 0.41 0.35 0.31 0.34 0.32 0.19 0.15 0.18 0.20 0.21 0.23 0.31 0.44 0.56 0.91 1.32 1.71 1.90 2.02 1.80 1.87 2.05 1.98 1.95 1.93 1.77
0.09 0.13 0.25 0.24 0.25 0.18 0.15 0.21 0.13 0.05 0.06 0.06 0.06 0.05 0.11 0.31 0.84 1.23 1.15 0.81 0.58 0.45 0.45 0.52 0.55 0.67 0.75 0.70 0.65 0.70 0.86 1.12 1.17 1.34 1.73 2.05 2.19 2.13 2.00 1.77 1.62 1.86 1.91 1.90
0.02 0.05 0.14 0.08 0.05 0.08 0.06 0.06 0.04 0.06 0.12 0.15 0.09 0.11 0.24 0.42 0.60 0.86 1.36 1.48 1.41 1.32 1.37 1.28 1.24 1.66 1.73 1.60 1.56 1.57 1.41 1.41 1.48 1.63 1.63 1.72 1.83 1.85 1.74 1.70 1.67 1.71 1.64 1.46
0.01 0.01 0.02 0.04 0.04 0.05 0.04 0.05 0.08 0.08 0.03 0.02 0.09 0.21 0.18 0.31 0.39 0.48 0.75 1.00 1.15 1.50 1.80 1.84 1.87 1.92 1.63 1.48 1.24 1.22 1.21 1.07 0.92 0.94 1.14 1.30 1.30 1.35 1.46 1.52 1.54 1.53 1.51 1.57
0.01 0.03 0.04 0.05 0.08 0.08 0.07 0.05 0.03 0.03 0.03 0.05 0.08 0.10 0.09 0.16 0.30 0.61 0.95 1.05 1.18 1.32 1.36 1.25 1.26 1.05 0.83 0.80 0.72 0.68 0.69 0.69 0.64 0.64 0.67 0.76 0.92 1.04 1.10 1.13 1.18 1.18 1.28 1.35
0.01 0.02 0.07 0.12 0.07 0.01 0.01 0.01 0.03 0.05 0.08 0.12 0.24 0.38 0.43 0.50 0.74 1.09 1.41 1.37 0.93 0.83 0.90 0.87 0.69 0.53 0.46 0.49 0.44 0.40 0.40 0.42 0.48 0.55 0.57 0.61 0.67 0.72 0.69 0.72 0.80 0.85 0.94 0.95
0.10 0.10 0.06 0.02 0.03 0.03 0.03 0.05 0.09 0.15 0.23 0.30 0.41 0.68 0.87 0.94 0.91 0.87 0.86 0.81 0.83 0.69 0.76 0.49 0.38 0.29 0.26 0.28 0.25 0.30 0.32 0.37 0.38 0.39 0.45 0.49 0.50 0.59 0.63 0.61 0.62 0.68 0.72 0.75
0.04 0.04 0.04 0.05 0.06 0.08 0.12 0.20 0.26 0.36 0.47 0.44 0.49 0.60 0.60 0.67 0.59 0.60 0.58 0.50 0.48 0.46 0.33 0.28 0.24 0.23 0.21 0.19 0.12 0.16 0.22 0.27 0.27 0.33 0.42 0.46 0.54 0.57 0.51 0.48 0.51 0.58 0.61 0.66
0.26 0.10 0.11 0.14 0.18 0.28 0.38 0.44 0.39 0.50 0.67 0.55 0.46 0.59 0.66 0.83 0.77 0.67 0.53 0.39 0.38 0.26 0.23 0.20 0.16 0.16 0.13 0.15 0.14 0.19 0.26 0.31 0.36 0.41 0.39 0.40 0.39 0.38 0.41 0.41 0.45 0.47 0.50 0.53
0.59 0.61 0.50 0.46 0.47 0.58 0.63 0.61 0.46 0.51 0.55 0.62 0.66 0.65 0.62 0.73 0.67 0.60 0.45 0.36 0.32 0.24 0.22 0.20 0.17 0.17 0.16 0.18 0.21 0.26 0.28 0.30 0.28 0.25 0.28 0.29 0.30 0.32 0.33 0.34 0.36 0.36 0.38 0.40
0.79 0.85 0.88 0.78 0.68 0.79 0.86 0.75 0.74 0.62 0.67 0.67 0.65 0.62 0.53 0.59 0.47 0.35 0.34 0.27 0.20 0.21 0.21 0.21 0.19 0.18 0.17 0.23 0.28 0.28 0.28 0.24 0.22 0.23 0.24 0.24 0.26 0.27 0.27 0.27 0.29 0.32 0.31 0.30
0.78 0.70 0.76 0.78 0.65 0.50 0.59 0.76 0.65 0.62 0.55 0.62 0.58 0.54 0.44 0.42 0.40 0.30 0.26 0.23 0.22 0.21 0.23 0.23 0.16 0.14 0.19 0.27 0.25 0.24 0.24 0.21 0.19 0.20 0.20 0.20 0.21 0.20 0.20 0.20 0.20 0.19 0.22 0.23
0.63 0.58 0.55 0.53 0.50 0.56 0.49 0.48 0.46 0.52 0.49 0.60 0.55 0.44 0.33 0.29 0.34 0.33 0.27 0.27 0.23 0.20 0.22 0.19 0.14 0.15 0.22 0.24 0.23 0.22 0.22 0.19 0.17 0.21 0.22 0.21 0.19 0.18 0.17 0.16 0.16 0.16 0.16 0.16
0.63 0.62 0.57 0.50 0.50 0.47 0.44 0.43 0.47 0.56 0.48 0.49 0.45 0.38 0.36 0.30 0.28 0.27 0.23 0.20 0.14 0.16 0.19 0.23 0.19 0.19 0.20 0.21 0.20 0.20 0.19 0.17 0.16 0.18 0.18 0.17 0.17 0.17 0.16 0.16 0.16 0.15 0.15 0.14
0.55 0.50 0.39 0.40 0.45 0.44 0.44 0.45 0.41 0.45 0.43 0.43 0.45 0.36 0.34 0.32 0.30 0.29 0.28 0.25 0.23 0.23 0.24 0.22 0.20 0.18 0.19 0.19 0.20 0.19 0.18 0.17 0.16 0.16 0.16 0.17 0.18 0.20 0.20 0.19 0.19 0.19 0.19 0.19

GFSNGP_prec_precacc_150.txt.gz
Total_Precipitation_Accumulation
0.02 0.01 0.01 0.02 0.01 0.01 0.03 0.09 0.30 0.15 0.21 0.32 0.33 0.44 0.62 0.39 0.45 0.31 0.67 0.81 0.61 0.64 0.59 0.58 0.65 0.68 0.76 0.66 0.65 0.72 0.68 0.69 0.58 0.70 1.10 1.26 1.50 1.40 1.06 0.77 0.62 0.50 0.44 0.38
0.09 0.00 0.00 0.00 0.00 0.01 0.02 0.03 0.04 0.05 0.08 0.04 0.04 0.10 0.09 0.10 0.11 0.21 0.37 0.28 0.29 0.22 0.23 0.27 0.33 0.39 0.52 0.61 0.53 0.49 0.50 0.46 0.60 0.72 0.64 0.71 0.66 0.56 0.54 0.55 0.52 0.47 0.33 0.30
0.16 0.02 0.06 0.10 0.02 0.03 0.15 0.24 0.18 0.15 0.11 0.02 0.04 0.08 0.15 0.13 0.10 0.12 0.12 0.07 0.15 0.21 0.17 0.27 0.29 0.31 0.44 0.57 0.56 0.41 0.35 0.35 0.38 0.38 0.36 0.31 0.23 0.25 0.30 0.32 0.32 0.37 0.47 0.35
0.33 0.22 0.33 0.15 0.04 0.04 0.20 0.14 0.07 0.10 0.06 0.04 0.04 0.17 0.14 0.07 0.05 0.08 0.06 0.07 0.06 0.09 0.06 0.12 0.26 0.44 0.51 0.54 0.60 0.56 0.37 0.26 0.18 0.15 0.14 0.17 0.27 0.34 0.35 0.33 0.25 0.24 0.32 0.62
0.48 0.31 0.18 0.07 0.09 0.13 0.18 0.32 0.21 0.17 0.11 0.06 0.05 0.19 0.31 0.11 0.08 0.09 0.06 0.05 0.01 0.01 0.01 0.02 0.10 0.37 0.75 0.87 0.66 0.62 0.46 0.34 0.20 0.14 0.16 0.26 0.40 0.47 0.39 0.34 0.41 0.35 0.34 0.39
0.64 0.53 0.24 0.21 0.16 0.07 0.16 0.56 0.71 0.40 0.34 0.30 0.19 0.37 0.44 0.16 0.11 0.07 0.03 0.00 0.00 0.00 0.00 0.02 0.08 0.23 0.39 0.74 0.85 0.60 0.54 0.41 0.39 0.29 0.28 0.36 0.35 0.28 0.28 0.38 0.39 0.52 0.60 0.43
0.63 1.06 0.51 0.17 0.07 0.09 0.53 1.13 0.87 0.80 1.00 0.85 0.90 1.03 0.63 0.37 0.15 0.04 0.00 0.00 0.00 0.00 0.00 0.00 0.05 0.18 0.47 0.69 1.06 1.04 0.70 0.62 0.48 0.37 0.37 0.31 0.27 0.27 0.33 0.37 0.45 0.43 0.42 0.51
0.99 1.10 0.71 0.21 0.40 0.86 0.97 0.56 0.74 1.25 1.47 1.25 1.08 0.79 0.45 0.14 0.06 0.02 0.00 0.00 0.00 0.00 0.00 0.01 0.03 0.06 0.20 0.53 1.15 1.59 1.27 0.84 0.78 0.64 0.39 0.30 0.26 0.25 0.31 0.40 0.45 0.44 0.39 0.36
0.94 0.78 0.50 0.36 0.61 0.77 0.67 0.73 0.85 0.76 0.79 0.55 0.44 0.20 0.07 0.04 0.01 0.00 0.00 0.00 0.00 0.01 0.02 0.02 0.01 0.02 0.08 0.16 0.35 1.17 1.83 1.81 1.36 0.89 0.75 0.69 0.66 0.60 0.52 0.47 0.46 0.49 0.51 0.52
0.97 0.63 0.36 0.53 0.40 0.48 0.72 0.70 0.44 0.42 0.41 0.38 0.26 0.16 0.11 0.04 0.03 0.01 0.01 0.01 0.02 0.03 0.02 0.01 0.01 0.02 0.05 0.07 0.16 0.42 0.92 1.50 1.87 1.88 1.13 0.98 1.14 1.13 1.27 1.23 0.97 0.95 1.03 1.05
1.29 1.43 0.90 0.58 0.56 0.54 0.52 0.57 0.58 0.34 0.24 0.27 0.36 0.31 0.27 0.23 0.09 0.03 0.05 0.06 0.05 0.07 0.06 0.03 0.04 0.04 0.06 0.13 0.19 0.26 0.57 0.98 1.28 1.95 1.92 1.10 0.99 1.21 1.16 1.44 1.53 1.26 1.13 1.21
1.15 1.24 1.53 1.13 1.26 0.97 0.70 0.40 0.29 0.17 0.23 0.17 0.09 0.10 0.15 0.20 0.30 0.31 0.23 0.19 0.18 0.14 0.09 0.10 0.11 0.13 0.14 0.16 0.23 0.30 0.50 0.90 1.20 1.46 2.04 2.03 1.45 1.66 1.99 2.12 2.06 2.15 2.19 1.96
0.45 0.57 0.85 1.06 0.74 0.36 0.34 0.39 0.20 0.08 0.07 0.02 0.02 0.05 0.15 0.32 0.42 0.44 0.41 0.35 0.31 0.34 0.32 0.20 0.15 0.18 0.20 0.21 0.24 0.32 0.45 0.58 0.92 1.33 1.72 1.92 2.03 1.81 1.88 2.06 1.98 1.95 1.94 1.77
0.09 0.13 0.25 0.24 0.25 0.18 0.15 0.21 0.13 0.05 0.06 0.06 0.06 0.05 0.11 0.31 0.84 1.23 1.15 0.81 0.58 0.45 0.45 0.52 0.55 0.68 0.76 0.70 0.66 0.71 0.87 1.14 1.18 1.35 1.74 2.06 2.19 2.14 2.01 1.78 1.63 1.86 1.91 1.90
0.02 0.05 0.14 0.08 0.05 0.08 0.06 0.06 0.04 0.06 0.12 0.15 0.09 0.11 0.24 0.42 0.60 0.87 1.36 1.48 1.41 1.32 1.37 1.28 1.25 1.66 1.73 1.60 1.56 1.58 1.42 1.43 1.49 1.64 1.64 1.73 1.84 1.86 1.75 1.71 1.68 1.72 1.65 1.46
0.01 0.01 0.02 0.04 0.04 0.05 0.04 0.05 0.08 0.08 0.03 0.02 0.09 0.21 0.18 0.31 0.39 0.48 0.75 1.00 1.15 1.50 1.80 1.84 1.88 1.92 1.64 1.49 1.25 1.23 1.22 1.07 0.92 0.94 1.15 1.30 1.30 1.35 1.47 1.52 1.55 1.54 1.52 1.58
0.01 0.03 0.04 0.05 0.08 0.08 0.07 0.05 0.03 0.03 0.03 0.05 0.08 0.10 0.09 0.16 0.30 0.61 0.95 1.05 1.18 1.33 1.37 1.26 1.27 1.05 0.84 0.81 0.72 0.69 0.70 0.70 0.65 0.65 0.68 0.77 0.93 1.04 1.11 1.14 1.19 1.19 1.29 1.36
0.01 0.02 0.07 0.12 0.07 0.01 0.01 0.01 0.03 0.05 0.08 0.12 0.24 0.38 0.43 0.50 0.74 1.09 1.41 1.37 0.93 0.84 0.91 0.87 0.70 0.53 0.47 0.50 0.44 0.41 0.41 0.43 0.48 0.57 0.58 0.62 0.68 0.73 0.70 0.73 0.81 0.86 0.95 0.96
0.10 0.10 0.06 0.02 0.03 0.03 0.03 0.05 0.09 0.15 0.23 0.30 0.41 0.68 0.87 0.94 0.91 0.87 0.87 0.81 0.84 0.70 0.76 0.50 0.38 0.29 0.26 0.29 0.25 0.31 0.33 0.38 0.39 0.40 0.46 0.50 0.51 0.61 0.65 0.62 0.63 0.69 0.72 0.76
0.04 0.04 0.04 0.05 0.06 0.08 0.12 0.20 0.26 0.36 0.47 0.44 0.49 0.60 0.60 0.67 0.59 0.60 0.58 0.52 0.49 0.47 0.33 0.29 0.25 0.24 0.21 0.19 0.13 0.17 0.22 0.28 0.28 0.35 0.44 0.47 0.56 0.58 0.53 0.49 0.52 0.58 0.62 0.67
0.26 0.10 0.11 0.14 0.18 0.28 0.38 0.44 0.39 0.50 0.67 0.55 0.46 0.59 0.66 0.83 0.78 0.68 0.54 0.39 0.38 0.26 0.23 0.21 0.16 0.16 0.13 0.15 0.15 0.20 0.28 0.31 0.37 0.42 0.40 0.42 0.41 0.39 0.43 0.43 0.46 0.48 0.52 0.54
0.59 0.61 0.50 0.46 0.47 0.58 0.63 0.61 0.46 0.51 0.56 0.62 0.66 0.65 0.62 0.74 0.67 0.60 0.46 0.37 0.32 0.25 0.22 0.21 0.17 0.18 0.16 0.19 0.23 0.27 0.29 0.31 0.29 0.26 0.29 0.30 0.32 0.34 0.34 0.35 0.38 0.38 0.39 0.41
0.79 0.85 0.88 0.78 0.68 0.79 0.86 0.75 0.74 0.62 0.67 0.67 0.65 0.62 0.53 0.59 0.48 0.35 0.35 0.28 0.20 0.21 0.22 0.22 0.19 0.18 0.17 0.25 0.30 0.30 0.30 0.25 0.23 0.24 0.26 0.26 0.28 0.29 0.29 0.28 0.31 0.34 0.33 0.31
0.78 0.70 0.76 0.78 0.65 0.50 0.60 0.76 0.65 0.62 0.55 0.62 0.59 0.54 0.44 0.42 0.41 0.30 0.26 0.23 0.22 0.21 0.25 0.24 0.16 0.14 0.20 0.28 0.26 0.25 0.26 0.22 0.19 0.22 0.21 0.20 0.22 0.21 0.22 0.21 0.21 0.21 0.24 0.24
0.63 0.58 0.55 0.53 0.50 0.56 0.49 0.49 0.46 0.53 0.50 0.61 0.55 0.45 0.34 0.29 0.35 0.33 0.28 0.28 0.24 0.21 0.23 0.20 0.14 0.15 0.23 0.25 0.24 0.22 0.23 0.20 0.18 0.22 0.23 0.22 0.20 0.19 0.17 0.17 0.17 0.16 0.17 0.17
0.63 0.62 0.57 0.50 0.50 0.47 0.44 0.44 0.47 0.56 0.48 0.50 0.47 0.38 0.36 0.31 0.29 0.27 0.24 0.21 0.15 0.16 0.20 0.24 0.20 0.19 0.21 0.22 0.21 0.21 0.20 0.18 0.17 0.19 0.20 0.19 0.19 0.17 0.16 0.16 0.16 0.16 0.15 0.14
0.55 0.50 0.40 0.40 0.45 0.44 0.44 0.45 0.42 0.46 0.44 0.43 0.46 0.36 0.35 0.33 0.31 0.30 0.28 0.26 0.24 0.24 0.25 0.23 0.21 0.19 0.19 0.20 0.21 0.20 0.19 0.18 0.17 0.17 0.18 0.18 0.20 0.21 0.21 0.20 0.20 0.20 0.19 0.19

GFSNGP_prec_precacc_156.txt.gz
Total_Precipitation_Accumulation
0.02 0.01 0.01 0.02 0.01 0.01 0.03 0.09 0.30 0.15 0.21 0.32 0.33 0.44 0.62 0.39 0.45 0.31 0.67 0.81 0.61 0.64 0.59 0.58 0.65 0.68 0.76 0.66 0.65 0.72 0.68 0.69 0.59 0.72 1.12 1.31 1.61 1.60 1.34 1.06 0.94 0.85 0.75 0.72
0.09 0.00 0.00 0.00 0.00 0.01 0.02 0.03 0.04 0.05 0.08 0.04 0.04 0.10 0.09 0.10 0.11 0.21 0.37 0.28 0.29 0.22 0.23 0.27 0.33 0.39 0.52 0.61 0.53 0.49 0.50 0.46 0.60 0.75 0.67 0.74 0.71 0.63 0.67 0.82 0.86 0.72 0.51 0.46
0.16 0.02 0.06 0.10 0.02 0.03 0.15 0.24 0.18 0.15 0.11 0.02 0.04 0.08 0.15 0.13 0.10 0.12 0.12 0.07 0.15 0.21 0.17 0.27 0.29 0.31 0.44 0.57 0.56 0.41 0.35 0.35 0.38 0.39 0.38 0.33 0.26 0.28 0.33 0.38 0.44 0.58 0.68 0.52
0.33 0.22 0.33 0.15 0.04 0.04 0.20 0.14 0.07 0.10 0.06 0.04 0.04 0.17 0.14 0.07 0.05 0.08 0.06 0.07 0.06 0.09 0.06 0.12 0.26 0.44 0.51 0.54 0.60 0.56 0.37 0.26 0.18 0.15 0.14 0.17 0.27 0.34 0.35 0.33 0.26 0.25 0.36 0.75
0.48 0.31 0.18 0.07 0.09 0.13 0.18 0.32 0.21 0.17 0.11 0.06 0.05 0.19 0.31 0.11 0.08 0.09 0.06 0.05 0.01 0.01 0.01 0.02 0.10 0.37 0.75 0.87 0.66 0.62 0.46 0.34 0.20 0.15 0.16 0.26 0.40 0.47 0.39 0.34 0.41 0.35 0.34 0.39
0.64 0.53 0.24 0.21 0.16 0.07 0.16 0.56 0.71 0.40 0.34 0.30 0.19 0.37 0.44 0.16 0.11 0.07 0.03 0.00 0.00 0.00 0.00 0.02 0.08 0.23 0.39 0.74 0.85 0.60 0.54 0.41 0.39 0.30 0.28 0.36 0.35 0.28 0.28 0.38 0.39 0.52 0.60 0.43
0.63 1.07 0.52 0.17 0.07 0.09 0.53 1.13 0.87 0.80 1.00 0.85 0.90 1.03 0.63 0.37 0.15 0.04 0.00 0.00 0.00 0.00 0.00 0.00 0.05 0.18 0.47 0.69 1.06 1.04 0.70 0.62 0.48 0.38 0.38 0.32 0.27 0.27 0.33 0.38 0.45 0.43 0.42 0.51
0.99 1.10 0.71 0.21 0.40 0.86 0.97 0.56 0.74 1.25 1.47 1.25 1.08 0.79 0.45 0.14 0.06 0.02 0.00 0.00 0.00 0.00 0.00 0.01 0.03 0.06 0.20 0.53 1.15 1.59 1.27 0.84 0.78 0.64 0.39 0.31 0.26 0.25 0.31 0.40 0.45 0.44 0.40 0.36
0.94 0.78 0.50 0.36 0.61 0.77 0.67 0.73 0.85 0.76 0.79 0.55 0.44 0.20 0.07 0.04 0.01 0.00 0.00 0.00 0.00 0.01 0.02 0.02 0.01 0.02 0.08 0.16 0.35 1.17 1.83 1.81 1.36 0.89 0.75 0.69 0.66 0.60 0.52 0.48 0.46 0.49 0.51 0.52
0.97 0.63 0.36 0.53 0.40 0.48 0.72 0.70 0.44 0.42 0.41 0.38 0.26 0.16 0.11 0.04 0.03 0.01 0.01 0.01 0.02 0.03 0.02 0.01 0.01 0.02 0.05 0.07 0.16 0.42 0.92 1.50 1.87 1.89 1.13 0.98 1.14 1.13 1.27 1.24 0.98 0.95 1.04 1.06
1.29 1.43 0.91 0.58 0.56 0.54 0.52 0.57 0.58 0.34 0.24 0.27 0.36 0.31 0.27 0.23 0.09 0.03 0.05 0.06 0.05 0.07 0.06 0.03 0.04 0.04 0.06 0.13 0.19 0.26 0.57 0.98 1.28 1.96 1.92 1.10 1.00 1.21 1.16 1.45 1.55 1.29 1.16 1.22
1.15 1.24 1.53 1.13 1.26 0.97 0.70 0.40 0.29 0.17 0.23 0.17 0.09 0.10 0.15 0.20 0.30 0.31 0.23 0.19 0.18 0.14 0.09 0.10 0.11 0.13 0.14 0.16 0.24 0.31 0.50 0.91 1.21 1.47 2.04 2.04 1.45 1.66 1.99 2.12 2.07 2.16 2.21 1.97
0.45 0.57 0.85 1.06 0.74 0.36 0.34 0.39 0.20 0.08 0.07 0.02 0.02 0.05 0.15 0.32 0.42 0.44 0.41 0.35 0.31 0.34 0.32 0.20 0.15 0.18 0.21 0.21 0.24 0.33 0.45 0.59 0.94 1.33 1.73 1.93 2.03 1.81 1.88 2.06 1.99 1.95 1.94 1.77
0.09 0.13 0.25 0.24 0.25 0.18 0.15 0.21 0.13 0.05 0.06 0.06 0.06 0.05 0.11 0.31 0.84 1.23 1.15 0.81 0.58 0.45 0.45 0.52 0.55 0.68 0.76 0.70 0.67 0.71 0.87 1.15 1.20 1.35 1.76 2.08 2.20 2.14 2.01 1.79 1.64 1.87 1.92 1.90
0.02 0.05 0.14 0.08 0.05 0.08 0.06 0.06 0.04 0.06 0.12 0.15 0.09 0.11 0.24 0.42 0.60 0.87 1.36 1.48 1.41 1.32 1.37 1.28 1.25 1.66 1.73 1.60 1.57 1.58 1.42 1.45 1.50 1.64 1.67 1.74 1.85 1.86 1.76 1.71 1.68 1.72 1.65 1.46
0.01 0.01 0.02 0.04 0.04 0.05 0.04 0.05 0.08 0.08 0.03 0.02 0.09 0.21 0.18 0.31 0.39 0.48 0.75 1.00 1.15 1.51 1.82 1.85 1.88 1.92 1.64 1.49 1.25 1.23 1.22 1.08 0.92 0.94 1.17 1.31 1.31 1.36 1.49 1.53 1.55 1.54 1.53 1.59
0.01 0.03 0.04 0.05 0.08 0.08 0.07 0.05 0.03 0.03 0.03 0.05 0.08 0.10 0.09 0.16 0.30 0.61 0.95 1.05 1.18 1.33 1.37 1.26 1.28 1.05 0.84 0.81 0.72 0.69 0.71 0.71 0.65 0.65 0.69 0.77 0.94 1.07 1.14 1.15 1.20 1.20 1.30 1.36
0.01 0.02 0.07 0.12 0.07 0.01 0.01 0.01 0.03 0.05 0.08 0.12 0.24 0.38 0.43 0.50 0.74 1.09 1.41 1.37 0.94 0.84 0.91 0.87 0.70 0.53 0.47 0.50 0.44 0.41 0.42 0.43 0.49 0.57 0.59 0.63 0.70 0.75 0.74 0.74 0.82 0.87 0.96 0.96
0.10 0.10 0.06 0.02 0.03 0.03 0.03 0.05 0.09 0.15 0.23 0.30 0.41 0.68 0.87 0.94 0.91 0.87 0.87 0.82 0.84 0.70 0.76 0.50 0.38 0.29 0.26 0.29 0.25 0.31 0.34 0.38 0.39 0.40 0.47 0.50 0.52 0.62 0.67 0.64 0.64 0.70 0.73 0.76
0.04 0.04 0.04 0.05 0.06 0.08 0.12 0.20 0.26 0.36 0.47 0.44 0.49 0.60 0.60 0.67 0.59 0.60 0.58 0.54 0.50 0.47 0.33 0.29 0.25 0.24 0.21 0.19 0.13 0.18 0.23 0.28 0.29 0.35 0.44 0.47 0.56 0.60 0.55 0.51 0.54 0.60 0.63 0.68
0.26 0.10 0.11 0.14 0.18 0.28 0.38 0.44 0.39 0.50 0.67 0.55 0.46 0.59 0.66 0.83 0.78 0.68 0.54 0.39 0.38 0.26 0.23 0.21 0.16 0.16 0.13 0.15 0.16 0.20 0.28 0.32 0.37 0.43 0.41 0.42 0.41 0.40 0.44 0.44 0.48 0.49 0.53 0.55
0.59 0.61 0.50 0.46 0.47 0.58 0.63 0.61 0.46 0.51 0.56 0.62 0.66 0.65 0.62 0.74 0.68 0.61 0.47 0.38 0.32 0.25 0.22 0.22 0.17 0.18 0.16 0.19 0.23 0.27 0.30 0.31 0.29 0.27 0.30 0.31 0.33 0.35 0.36 0.37 0.41 0.40 0.40 0.43
0.79 0.85 0.88 0.78 0.68 0.79 0.86 0.75 0.74 0.62 0.67 0.67 0.65 0.62 0.53 0.59 0.49 0.36 0.36 0.28 0.20 0.21 0.23 0.22 0.19 0.18 0.17 0.25 0.30 0.30 0.31 0.26 0.23 0.25 0.26 0.27 0.29 0.30 0.31 0.31 0.32 0.36 0.34 0.33
0.78 0.70 0.76 0.78 0.65 0.50 0.60 0.76 0.65 0.62 0.55 0.62 0.59 0.54 0.44 0.42 0.42 0.30 0.26 0.23 0.22 0.21 0.26 0.24 0.16 0.14 0.20 0.28 0.27 0.25 0.27 0.23 0.19 0.22 0.21 0.21 0.23 0.22 0.23 0.23 0.23 0.22 0.26 0.25
0.63 0.58 0.55 0.53 0.50 0.56 0.49 0.49 0.46 0.53 0.50 0.61 0.56 0.45 0.34 0.29 0.35 0.33 0.28 0.28 0.24 0.21 0.23 0.20 0.14 0.15 0.23 0.25 0.24 0.23 0.23 0.21 0.18 0.22 0.24 0.22 0.21 0.19 0.18 0.18 0.18 0.18 0.18 0.18
0.63 0.62 0.57 0.50 0.51 0.47 0.44 0.44 0.48 0.57 0.49 0.52 0.48 0.38 0.36 0.31 0.29 0.27 0.24 0.21 0.15 0.16 0.21 0.24 0.20 0.19 0.21 0.22 0.21 0.21 0.20 0.19 0.17 0.19 0.20 0.19 0.19 0.18 0.17 0.17 0.18 0.17 0.16 0.15
0.56 0.51 0.40 0.40 0.45 0.44 0.44 0.45 0.42 0.47 0.44 0.43 0.47 0.37 0.35 0.33 0.31 0.30 0.29 0.26 0.24 0.25 0.25 0.23 0.21 0.19 0.19 0.20 0.22 0.20 0.19 0.19 0.17 0.17 0.18 0.19 0.20 0.22 0.22 0.22 0.21 0.21 0.20 0.20